Total_Precipitation_Accumulation
0.95 1.09 1.34 1.82 1.41 0.87 0.52 0.39 0.30 0.19 0.23 0.24 0.24 0.24 0.24 0.52 0.73 1.06 0.86 0.84 0.79 0.52 0.39 0.53 0.66 1.07 1.30 1.67 2.05 2.35 2.28 2.17 1.31 1.13 0.98 0.83 0.71 0.78 0.78 0.71 0.56 0.38 0.42
1.61 2.99 3.16 3.56 3.34 2.97 2.13 1.28 0.63 0.52 0.39 0.34 0.40 0.35 0.24 0.25 0.33 0.48 0.30 0.31 0.39 0.31 0.28 0.30 0.38 0.57 0.98 1.45 1.69 1.84 2.22 2.22 1.61 1.65 1.63 1.46 1.22 1.22 1.05 0.93 0.82 0.77 0.58
2.52 3.32 4.63 6.37 7.58 7.23 6.15 4.46 2.40 1.32 0.92 0.53 0.40 0.41 0.43 0.41 0.32 0.25 0.29 0.27 0.32 0.32 0.40 0.40 0.48 0.61 0.82 1.18 1.59 1.88 1.80 1.73 1.66 1.54 1.47 1.36 1.15 1.11 0.99 0.95 0.85 0.64 0.48
3.07 3.83 3.99 3.15 3.43 3.34 2.97 2.51 2.12 1.54 0.96 0.73 0.61 0.55 0.51 0.54 0.41 0.28 0.27 0.38 0.45 0.46 0.57 0.68 0.68 0.77 1.12 1.34 1.24 1.34 1.55 1.69 1.77 1.96 1.96 2.08 1.79 1.59 1.36 1.07 0.93 0.70 0.49
3.30 3.12 2.34 1.80 1.29 1.01 0.67 0.36 0.26 0.33 0.33 0.46 0.39 0.45 0.60 0.61 0.42 0.35 0.21 0.18 0.25 0.41 0.49 0.50 0.47 0.53 0.48 0.49 0.58 0.87 0.97 1.05 0.98 0.94 0.93 1.18 1.42 1.50 1.19 1.02 0.84 0.75 0.58
2.05 1.74 1.52 1.57 1.46 1.28 0.95 0.82 0.47 0.43 0.38 0.33 0.31 0.38 0.52 0.68 0.65 0.55 0.43 0.27 0.29 0.32 0.40 0.51 0.59 0.70 0.59 0.53 0.47 0.44 0.44 0.39 0.38 0.46 0.51 0.55 0.61 0.52 0.64 0.69 0.54 0.41 0.28
2.27 1.91 2.61 2.69 2.87 2.65 1.93 1.75 1.26 1.16 0.98 0.73 0.64 0.61 0.65 0.63 0.57 0.59 0.63 0.40 0.30 0.30 0.30 0.39 0.36 0.30 0.37 0.31 0.26 0.12 0.08 0.08 0.13 0.23 0.26 0.26 0.30 0.33 0.35 0.56 0.75 0.70 0.48
2.15 2.42 2.61 2.51 2.84 3.88 3.45 2.93 2.45 2.16 1.72 1.28 1.09 0.89 0.81 0.64 0.79 0.90 0.80 0.58 0.50 0.41 0.37 0.44 0.37 0.38 0.41 0.31 0.32 0.20 0.08 0.06 0.08 0.08 0.13 0.21 0.26 0.38 0.23 0.30 0.47 0.47 0.40
1.72 2.17 2.12 2.24 2.48 2.75 2.93 3.34 3.12 2.47 2.30 1.59 1.16 1.04 0.88 0.88 1.03 0.92 0.72 0.59 0.55 0.61 0.69 0.64 0.54 0.37 0.57 0.65 0.54 0.43 0.31 0.15 0.16 0.20 0.16 0.13 0.19 0.19 0.14 0.09 0.12 0.23 0.33
1.28 1.38 1.79 2.28 3.08 3.42 3.78 4.48 3.81 2.39 2.54 2.30 1.56 1.21 0.92 0.85 1.08 0.89 0.59 0.44 0.63 0.79 0.82 0.56 0.47 0.46 0.64 0.66 0.57 0.68 0.41 0.25 0.47 0.28 0.21 0.14 0.09 0.04 0.02 0.04 0.10 0.11 0.13
1.16 1.61 2.16 2.63 3.21 3.61 3.91 3.62 3.43 3.08 2.34 2.10 1.52 1.40 0.98 0.76 0.74 1.04 0.88 0.39 0.48 0.61 0.54 0.44 0.35 0.39 0.44 0.45 0.49 0.47 0.39 0.47 0.59 0.44 0.23 0.15 0.12 0.12 0.08 0.09 0.13 0.18 0.19
1.06 1.26 1.32 1.77 2.56 3.19 2.57 2.28 2.06 2.15 2.15 1.62 1.60 1.19 1.08 0.86 0.94 0.89 0.97 0.66 0.67 0.45 0.44 0.51 0.45 0.36 0.27 0.25 0.20 0.17 0.23 0.23 0.33 0.39 0.28 0.19 0.17 0.13 0.14 0.18 0.18 0.17 0.24
1.88 1.98 2.06 2.31 2.24 2.06 1.81 1.60 1.49 1.19 1.26 1.23 1.30 1.10 1.14 1.13 0.99 0.86 0.67 0.66 0.69 0.58 0.45 0.43 0.44 0.30 0.22 0.18 0.20 0.25 0.30 0.23 0.34 0.34 0.18 0.21 0.27 0.30 0.35 0.34 0.26 0.29 0.30
2.38 2.63 3.26 3.52 2.50 2.03 2.08 1.93 1.72 1.64 1.73 1.76 1.18 0.92 0.93 0.96 0.84 0.70 0.53 0.40 0.32 0.26 0.25 0.19 0.16 0.16 0.17 0.15 0.17 0.20 0.24 0.31 0.40 0.34 0.24 0.37 0.44 0.38 0.31 0.35 0.31 0.32 0.32
0.93 1.02 0.75 0.51 0.53 0.57 0.61 0.69 0.81 0.96 1.12 1.30 1.24 1.03 1.21 1.18 1.20 1.11 0.85 0.54 0.42 0.35 0.24 0.15 0.13 0.11 0.08 0.08 0.08 0.10 0.15 0.21 0.19 0.23 0.32 0.40 0.44 0.48 0.41 0.47 0.48 0.42 0.28
0.11 0.09 0.07 0.06 0.09 0.15 0.18 0.34 0.56 0.63 0.71 0.78 0.63 0.52 0.61 0.97 1.30 1.32 0.92 0.74 0.54 0.51 0.40 0.27 0.26 0.25 0.23 0.24 0.22 0.17 0.14 0.19 0.18 0.18 0.22 0.33 0.47 0.59 0.55 0.50 0.56 0.58 0.51
0.27 0.27 0.26 0.29 0.31 0.40 0.46 0.41 0.24 0.20 0.25 0.38 0.43 0.37 0.32 0.45 0.55 0.83 0.94 0.90 0.76 0.61 0.38 0.30 0.28 0.29 0.35 0.38 0.36 0.34 0.32 0.31 0.33 0.39 0.48 0.47 0.52 0.54 0.67 0.66 0.72 0.67 0.53
0.38 0.41 0.30 0.23 0.25 0.35 0.38 0.40 0.22 0.12 0.14 0.19 0.20 0.32 0.70 0.55 0.45 0.38 0.62 0.73 0.64 0.64 0.43 0.33 0.32 0.35 0.34 0.37 0.46 0.50 0.43 0.45 0.43 0.36 0.38 0.38 0.31 0.27 0.30 0.35 0.35 0.43 0.45
0.32 0.25 0.27 0.23 0.19 0.24 0.37 0.56 0.64 0.33 0.18 0.14 0.12 0.12 0.32 0.61 0.75 0.83 0.76 0.62 0.48 0.42 0.47 0.46 0.45 0.45 0.48 0.56 0.64 0.76 0.81 0.71 0.70 0.66 0.56 0.59 0.61 0.50 0.41 0.37 0.34 0.33 0.34
0.91 0.80 0.67 0.70 0.69 0.50 0.44 0.45 0.60 0.64 0.67 0.64 0.52 0.47 0.39 0.59 0.66 0.72 0.89 0.95 1.03 0.92 0.89 0.79 0.68 0.72 0.83 1.03 1.18 1.17 1.16 1.14 0.92 0.86 0.82 0.69 0.55 0.57 0.42 0.30 0.24 0.22 0.22
0.21 0.31 0.22 0.16 0.20 0.45 0.56 0.53 0.43 0.43 0.53 0.73 1.17 1.36 1.20 0.66 0.72 0.87 1.00 0.87 0.96 1.19 1.19 1.06 0.82 0.81 0.73 0.78 0.83 0.86 0.77 0.60 0.48 0.46 0.46 0.47 0.46 0.39 0.38 0.44 0.53 0.52 0.51
0.01 0.04 0.09 0.04 0.03 0.08 0.10 0.23 0.29 0.29 0.39 0.42 0.65 0.65 0.46 0.39 0.59 0.46 0.45 0.71 1.11 1.52 1.31 1.19 1.09 1.07 1.02 0.86 0.75 0.69 0.60 0.49 0.41 0.33 0.35 0.36 0.38 0.44 0.48 0.49 0.40 0.40 0.48
0.01 0.02 0.02 0.02 0.03 0.05 0.04 0.14 0.22 0.33 0.56 0.46 0.41 0.31 0.15 0.23 0.31 0.30 0.27 0.34 0.71 0.79 0.78 0.97 0.97 0.92 0.83 0.74 0.77 0.86 0.91 0.89 0.77 0.59 0.43 0.44 0.47 0.49 0.51 0.57 0.59 0.62 0.64
0.03 0.03 0.03 0.05 0.07 0.06 0.08 0.08 0.12 0.19 0.47 0.47 0.28 0.16 0.15 0.17 0.19 0.22 0.21 0.32 0.58 0.36 0.23 0.13 0.24 0.26 0.25 0.31 0.47 0.57 0.65 0.70 0.76 0.89 1.01 1.02 0.96 0.99 0.90 0.87 0.81 0.77 0.76
0.04 0.09 0.08 0.07 0.10 0.15 0.15 0.10 0.11 0.07 0.04 0.11 0.16 0.17 0.18 0.23 0.21 0.20 0.24 0.53 0.29 0.07 0.03 0.02 0.04 0.12 0.16 0.16 0.15 0.18 0.30 0.36 0.34 0.40 0.40 0.51 0.69 0.85 0.95 1.05 1.24 1.32 1.33
0.11 0.10 0.08 0.09 0.13 0.19 0.22 0.19 0.19 0.16 0.17 0.25 0.18 0.16 0.15 0.26 0.23 0.19 0.18 0.13 0.07 0.03 0.02 0.03 0.05 0.09 0.10 0.08 0.09 0.13 0.15 0.17 0.21 0.28 0.29 0.36 0.47 0.47 0.57 0.80 0.99 1.00 1.07